#timestamp,LO_Frequency,Hit,StdDev 
1577721615.1,286047001.3,N
1577721616.0,286047001.3,N
1577721635.8,286047004.3,N
1577721655.7,286047000.5,N
1577721675.5,286047002.8,N
1577721695.3,286047001.7,N
1577721715.2,286047002.8,N
1577721735.9,286047002.5,N
1577721755.7,286047000.3,N
1577721775.6,286046998.9,N
1577721795.4,286047001.0,N
1577721815.3,286047000.9,N
1577721835.1,286047000.6,N
1577721836.0,286047000.6,N
1577721855.8,286047002.2,N
1577721875.7,286046999.8,N
1577721895.5,286047000.8,N
1577721915.3,286047001.1,N
1577721935.2,286046998.8,N
1577721955.0,286046999.3,N
1577721955.9,286046999.3,N
1577721975.8,286046999.3,N
1577721995.6,286046999.8,N
1577722015.4,286047003.0,N
1577722035.3,286047001.6,N
1577722055.1,286047001.3,N
1577722075.8,286047004.0,Y
1577722095.7,286047000.1,P
1577722115.5,286047001.0,N
1577722135.4,286047002.2,P
1577722155.2,286047000.9,N
1577722175.0,286046997.2,Y
1577722175.9,286046997.2,P
1577722195.8,286046997.6,N
1577722215.6,286046995.0,N
1577722235.4,286046995.1,N
1577722255.3,286046994.9,N
1577722275.1,286046995.0,N
1577722295.9,286046993.6,Y
1577722315.7,286046999.5,P
1577722335.5,286046999.4,N
1577722355.4,286046999.6,N
1577722375.2,286046997.0,N
1577722395.1,286046998.9,N
1577722396.0,286046998.9,N
1577722415.8,286046998.5,N
1577722435.6,286046998.7,N
1577722455.5,286047000.0,N
1577722475.3,286047002.6,N
1577722495.1,286047002.0,N
1577722515.9,286047001.6,N
1577722535.7,286047002.6,N
1577722555.6,286047001.8,N
1577722575.4,286047001.7,N
1577722595.2,286047001.6,N
1577722615.1,286047002.6,N
1577722616.0,286047002.6,N
1577722635.8,286047000.6,N
1577722655.6,286047001.2,N
1577722675.5,286046998.3,N
1577722695.3,286046998.3,N
1577722715.2,286046998.4,N
1577722735.9,286047001.2,N
1577722755.7,286046996.7,N
1577722775.6,286046997.2,N
1577722795.4,286046997.7,N
1577722815.2,286046995.0,N
1577722835.1,286046995.0,N
1577722836.0,286046995.0,N
1577722855.8,286046996.7,N
1577722875.7,286046996.7,N
1577722895.5,286046997.0,N
1577722915.3,286046999.6,N
1577722935.2,286046996.5,N
1577722955.0,286046996.8,N
1577722955.9,286046996.8,N
1577722975.7,286046996.6,N
1577722995.6,286046998.9,N
1577723015.4,286046996.7,N
1577723035.3,286046999.6,N
1577723055.1,286047000.8,N
1577723056.0,286047000.8,N
1577723075.8,286047000.7,N
1577723095.7,286047001.0,N
1577723115.5,286047001.2,N
1577723135.3,286047002.2,N
1577723155.2,286047003.9,N
1577723175.0,286047004.0,N
1577723175.9,286047004.0,N
1577723195.8,286047005.7,N
1577723215.6,286047003.2,N
1577723235.4,286047001.8,N
1577723255.3,286047002.4,N
1577723275.1,286047000.6,N
1577723295.8,286047000.8,N
1577723315.7,286046998.1,N
1577723335.5,286046999.0,N
1577723355.4,286046998.5,N
1577723375.2,286046996.5,N
1577723395.0,286046999.0,N
1577723395.9,286046999.0,N
1577723415.8,286047001.0,N
1577723435.6,286046999.2,N
1577723455.4,286046997.3,N
1577723475.3,286046996.6,N
1577723495.1,286046999.1,N
1577723515.9,286046998.9,N
1577723535.7,286046999.0,N
1577723555.5,286047000.8,N
1577723575.4,286047000.1,N
1577723595.2,286047001.6,N
1577723615.0,286047001.7,N
1577723616.0,286047001.7,N
1577723635.8,286047001.4,N
1577723655.6,286047003.9,N
1577723675.5,286047001.7,N
1577723695.3,286047004.1,N
1577723715.1,286047005.9,N
1577723735.9,286047002.1,N
1577723755.7,286047002.9,N
1577723775.5,286047001.7,N
1577723795.4,286047001.5,N
1577723815.2,286047000.3,N
1577723835.1,286047002.0,N
1577723836.0,286047002.0,N
1577723855.8,286047001.9,N
1577723875.6,286047001.4,N
1577723895.5,286047000.3,N
1577723915.3,286046999.8,N
1577723935.2,286047000.1,N
1577723955.9,286046999.9,N
1577723975.7,286047000.3,N
1577723995.6,286047000.3,N
1577724015.4,286047000.7,N
1577724035.2,286046998.2,N
1577724055.1,286046999.0,N
1577724056.0,286046999.0,N
1577724075.8,286046998.5,N
1577724095.7,286046998.4,N
1577724115.5,286046996.6,N
1577724135.3,286046998.5,N
1577724155.2,286046998.6,N
1577724175.0,286047000.6,N
1577724175.9,286047000.6,N
1577724195.8,286046998.2,N
1577724215.6,286047000.1,N
1577724235.4,286047000.9,N
1577724255.3,286047002.2,N
1577724275.1,286047003.1,N
1577724295.8,286047002.1,N
1577724315.7,286047000.4,N
1577724335.5,286047001.2,N
1577724355.4,286047000.4,N
1577724375.2,286047000.7,N
1577724395.0,286047002.8,N
1577724395.9,286047002.8,N
1577724415.8,286047000.6,N
1577724435.6,286047002.4,N
1577724455.4,286047001.0,N
1577724475.3,286046999.7,N
1577724495.1,286047000.1,N
1577724515.9,286047002.4,N
1577724535.7,286047000.4,N
1577724555.5,286046999.9,N
1577724575.4,286047000.4,N
1577724595.2,286046998.1,N
1577724615.0,286046999.9,N
1577724615.9,286046999.9,N
1577724635.8,286047001.5,N
1577724655.6,286047000.9,N
1577724675.5,286047001.1,N
1577724695.3,286046996.9,N
1577724715.1,286046997.6,N
1577724735.9,286046995.3,Y
1577724755.7,286046994.5,P
1577724775.5,286046996.4,N
1577724795.4,286046995.7,N
1577724815.2,286046996.1,N
1577724835.1,286046997.7,N
1577724836.0,286046997.7,N
1577724855.8,286046995.6,N
1577724875.6,286046995.1,N
1577724895.5,286046997.6,N
1577724915.3,286046995.0,N
1577724935.1,286046996.8,N
1577724955.9,286046997.7,N
1577724975.7,286046997.8,N
1577724995.6,286046995.0,Y
1577725015.4,286047001.1,P
1577725035.2,286046999.9,N
1577725055.1,286046998.4,N
1577725056.0,286046998.4,N
1577725075.8,286046996.6,N
1577725095.6,286046998.2,N
1577725115.5,286046999.2,N
1577725135.3,286046997.0,N
1577725155.2,286046999.0,N
1577725175.9,286046997.0,N
1577725195.7,286046996.5,N
